Probability
0 0 0 0 0 0 0 0 0 0 0 0 0 0 0 0 0 0 0 0 0 0 0 0 0 0 0 0 0 0 0 0 0 0 0 0 0 0
0 0 0 0 0 0 0 0 0 0 0 0 0 0 0 0 0 0 0 0 0 0 0 0 0 0 0 0 0 0 0 0 0 0 0 0 0 0
0 0 0 0 0 0 0 0 0 0 0 0 0 0 0 0 0 0 0 0 0 0 0 0 0 0 0 0 0 0 0 0 0 0 0 0 0 0
0 0 0 0 0 0 0 0 0 0 0 0 0 0 0 0 0 0 0 0 0 0 0 0 0 0 0 0 0 0 0 0 0 0 0 0 0 0
0 0 0 0 0 0 0 0 0 0 0 0 0 0 0 0 0 0 0 0 0 0 0 0 0 0 0 0 0 0 0 0 0 0 0 0 0 0
0 0 0 0 0 0 0 0 0 0 0 0 0 0 0 0 0 0 0 0 0 0 0 0 0 0 0 0 0 0 0 0 0 0 0 0 0 0
0 0 0 0 0 0 0 0 0 0 0 0 0 0 0 0 0 0 0 0 0 0 0 0 0 0 0 0 0 0 0 0 0 0 0 0 0 0
0 0 0 0 0 0 0 0 0 0 0 0 0 0 0 0 0 0 0 0 0 0 0 0 0 0 0 0 0 0 0 0 0 0 0 0 0 0
0 0 0 0 0 0 0 0 0 0 0 0 0 0 0 0 0 0 0 0 0 0 0 0 0 0 0 0 0 0 0 0 0 0 0 0 0 0
0 0 0 0 0 0 0 0 0 0 0 0 0 0 0 0 0 0 0 0 0 0 0 0 0 0 0 0 0 0 0 0 0 0 0 0 0 0
0 0 0 0 0 0 0 0 0 0 0 0 0 0 0 0 0 0 0 0 0 0 0 0 0 0 0 0 0 0 0 0 0 0 0 0 0 0
0 0 0 0 0 0 0 0 0 0 0 0 0 0 0 0 0 0 0 0 0 0 0 0 0 0 0 0 0 0 0 0 0 0 0 0 0 0
0 0 0 0 0 0 0 0 0 0 0 0 0 0 0 0 0 0 0 0 0 0 0 0 0 0 0 0 0 0 0 0 0 0 0 0 0 0
0 0 0 0 0 0 0 0 0 0 0 0 0 0 0 0 0 0 0 0 0 0 0 0 0 0 0 0 0 0 0 0 0 0 0 0 0 0
0 0 0 0 0 0 0 0 0 0 0 0 0 0 0 0 0 0 0 0 0 0 0 0 0 0 0 0 0 0 0 0 0 0 0 0 0 0
0 0 0 0 0 0 0 0 0 0 0 0 0 0 0 0 0 0 0 0 0 0 0 0 0 0 0 0 0 0 0 0 0 0 0 0 0 0
0 0 0 0 0 0 0 0 0 0 0 0 0 0 0 0 0 0 0 0 0 0 0 0 0 0 0 0 0 0 0 0 0 0 0 0 0 0
0 0 0 0 0 0 0 0 0 0 0 0 0 0 0 0 0 0 0 0 0 0 0 0 0 0 0 0 0 0 0 0 0 0 0 0 0 0
0 0 0 0 0 0 0 0 0 0 0 0 0 0 0 0 0 0 0 0 0 0 0 0 0 0 0 0 0 0 0 0 0 0 0 0 0 0
0 0 0 0 0 0 0 0 0 0 0 0 0 0 0 0 0 0 0 0 0 0 0 0 0 0 0 0 0 0 0 0 0 0 0 0 0 0
0 0 0 0 0 0 0 0 0 0 0 0 0 0 0 0 0 0 0 0 0 0 0 0 0 0 0 0 0 0 0 0 0 0 0 0 0 0
0 0 0 0 0 0 0 0 0 0 0 0 0 0 0 0 0 0 0 0 0 0 0 0 0 0 0 0 0 0 0 0 0 0 0 0 0 0
0 0 0 0 0 0 0 0 0 0 0 0 0 0 0 0 0 0 0 0 0 0 0 0 0 0 0 0 0 0 0 0 0 0 0 0 0 0
Wind_Speed
6 7 6 6 6 5 5 4 4 4 5 5 4 5 5 5 8 6 5 10 10 8 7 5 4 2 1 1 2 4 5 5 4 4 5 6 8 10
4 5 6 5 6 6 6 5 4 4 4 5 5 4 6 6 10 6 6 12 12 10 9 7 6 4 2 1 1 3 5 5 4 3 2 4 6 8
3 5 6 6 6 6 6 5 4 4 3 3 2 2 6 6 6 5 5 6 6 12 11 9 8 6 4 2 2 3 4 3 2 1 0 2 5 6
3 4 4 4 6 5 6 7 6 5 4 3 2 2 4 5 5 5 4 6 5 11 13 12 10 8 6 4 3 2 2 1 2 2 2 3 4 5
3 4 4 4 4 4 5 6 6 6 4 3 2 2 1 2 3 3 3 3 5 8 12 12 12 11 9 7 5 3 1 1 3 4 4 4 4 4
3 3 3 4 4 4 4 5 6 6 5 4 2 2 2 2 3 3 3 4 4 5 7 7 11 12 11 10 8 5 4 3 4 4 3 2 2 2
3 3 4 5 6 4 3 3 5 5 5 4 3 2 2 2 3 4 5 3 4 4 4 4 5 5 6 9 10 9 7 7 7 6 5 3 1 1
5 5 5 6 8 9 8 7 6 4 4 4 3 3 3 4 3 4 4 3 4 4 5 4 4 5 5 5 9 11 11 10 9 8 7 5 3 1
6 5 5 6 9 6 9 11 10 10 7 4 4 4 4 5 5 5 6 7 7 4 5 4 4 6 5 7 14 15 14 13 12 11 9 7 5 3
6 6 6 6 6 8 6 6 6 7 8 7 6 7 7 6 6 7 7 7 3 3 5 5 4 5 4 5 13 16 15 14 13 13 11 9 7 5
4 5 5 6 10 10 7 7 6 6 9 12 12 11 11 11 8 4 4 4 5 4 5 5 3 3 2 4 8 15 15 15 14 14 13 10 9 6
3 3 5 6 9 10 8 7 7 6 4 4 5 6 5 4 5 5 5 5 3 3 4 5 4 3 2 2 2 4 7 12 14 13 12 11 10 4
2 2 3 6 7 9 10 7 8 5 3 3 2 1 1 1 1 1 3 4 4 3 2 4 3 4 3 2 1 2 3 4 5 6 10 11 11 8
3 3 3 4 3 4 6 6 7 6 3 3 2 1 1 1 1 1 0 1 2 2 2 4 3 4 4 3 3 2 2 3 4 4 4 7 9 11
2 5 4 4 5 4 6 7 6 4 3 3 2 1 1 1 1 1 1 1 1 1 1 1 2 2 3 3 3 2 2 3 5 5 5 5 5 5
1 1 5 6 5 5 5 4 3 3 3 3 2 1 1 1 1 1 0 0 0 1 0 1 2 3 2 2 3 3 3 3 3 5 5 5 4 5
2 2 2 2 3 2 2 3 2 2 2 2 2 1 1 1 1 1 1 1 1 1 1 1 1 2 3 4 3 4 4 4 3 4 4 4 5 7
3 2 2 2 3 2 3 2 1 1 1 1 1 1 1 2 2 2 1 2 2 2 2 1 1 1 1 3 7 5 4 4 4 5 5 5 6 6
4 3 3 3 3 3 2 2 1 0 1 1 1 1 1 1 1 1 1 2 2 2 2 2 2 2 3 4 4 8 6 4 4 5 7 7 7 5
4 4 4 4 3 3 2 2 2 2 2 1 1 1 1 1 1 1 2 2 2 2 3 2 3 3 4 4 3 3 9 6 4 5 5 6 5 4
4 4 4 4 3 3 3 3 3 2 2 2 2 2 1 1 2 2 3 4 3 3 4 4 4 4 3 2 4 4 3 8 8 4 3 4 4 4
4 4 3 4 3 3 3 3 3 3 3 2 2 2 2 2 2 3 3 3 3 3 4 3 3 1 1 3 6 5 4 2 2 1 1 0 2 3
3 3 3 3 3 3 3 3 3 2 2 2 2 3 3 2 2 3 3 3 3 3 3 2 2 1 2 3 5 5 6 3 2 2 1 4 5 6
Wind_Direction
204 201 199 198 192 184 167 165 177 206 232 227 211 203 188 181 187 184 181 194 190 187 178 170 161 155 146 55 9 356 351 350 360 19 25 23 22 20
205 206 209 207 200 194 180 172 179 194 228 230 215 199 184 189 190 183 191 196 199 196 192 189 187 190 197 222 330 344 339 334 336 352 25 29 27 23
212 211 218 211 206 199 184 178 182 177 222 258 228 198 175 178 175 179 190 196 199 203 203 201 203 210 218 236 288 328 336 336 336 307 118 50 39 34
222 216 222 214 210 199 191 191 189 181 188 226 227 195 191 189 172 177 189 196 193 208 210 209 210 216 221 228 250 295 332 24 58 81 104 72 45 36
221 215 214 199 203 200 198 194 190 184 171 185 213 211 190 153 152 182 191 201 204 216 217 215 215 218 221 225 232 249 257 137 98 82 78 71 48 34
219 214 208 200 198 193 195 189 181 175 168 167 177 197 196 152 147 177 202 215 214 208 211 206 214 221 223 228 231 234 228 189 155 132 113 90 52 35
220 215 213 210 201 193 183 180 179 173 163 158 161 174 185 169 195 192 210 206 223 204 195 203 204 214 218 229 231 231 224 210 191 176 166 156 118 47
224 227 228 233 231 223 209 195 185 174 165 154 159 187 207 213 207 198 196 185 234 209 185 215 193 216 217 215 225 226 227 218 202 191 184 174 157 124
219 221 232 232 230 225 227 218 208 201 191 172 189 212 222 222 212 210 203 207 218 187 167 214 198 225 218 221 222 224 224 221 209 200 196 191 180 167
219 220 230 244 225 210 207 212 214 211 209 213 220 230 236 236 222 220 218 223 232 186 165 197 199 215 215 212 224 219 217 216 211 207 204 200 199 200
235 233 230 240 244 217 197 209 219 226 225 224 227 238 245 247 235 213 200 195 226 221 187 195 197 196 214 222 226 223 213 208 206 208 208 204 206 209
255 265 261 253 249 220 195 196 212 224 208 200 216 231 240 265 248 213 205 201 207 234 197 183 174 156 237 254 222 213 207 205 203 206 208 205 202 190
243 265 282 287 261 221 193 194 206 193 173 163 148 141 105 21 349 239 209 204 206 233 200 170 170 174 198 229 276 218 192 186 195 211 214 212 204 184
223 241 261 262 228 186 178 183 172 147 126 123 118 109 76 16 8 23 99 175 193 202 203 177 177 178 177 193 240 238 204 196 191 205 208 218 219 210
238 253 236 168 127 113 126 133 128 124 128 127 135 145 147 130 99 69 49 55 71 86 89 158 167 166 176 198 209 192 203 217 206 210 208 212 213 205
355 76 112 112 100 101 100 96 98 127 132 135 143 145 130 124 152 170 154 76 4 305 230 164 159 161 180 199 197 203 195 212 199 205 207 213 215 211
130 106 104 115 110 98 91 89 89 97 103 115 128 142 176 206 229 212 196 188 209 256 280 244 211 211 205 192 210 219 208 210 202 187 194 220 225 216
126 121 127 123 121 122 121 106 99 118 142 153 166 185 205 222 235 221 210 220 248 265 271 269 239 276 273 250 221 224 217 216 202 193 193 213 234 217
88 87 90 97 96 99 103 100 93 117 164 169 197 222 230 231 230 235 238 250 263 266 266 257 231 235 260 270 253 214 217 216 199 205 210 216 231 217
66 74 75 74 74 74 71 67 51 40 50 43 22 353 318 259 252 255 250 247 258 266 274 263 240 237 252 268 271 248 217 221 218 224 223 223 234 213
60 64 66 71 69 66 62 57 53 44 36 31 15 350 330 289 261 257 255 257 254 260 269 268 255 255 260 267 266 263 242 221 229 234 224 219 216 208
64 67 62 62 59 54 50 49 49 43 36 29 4 344 322 290 274 270 262 258 253 254 263 271 284 295 237 252 268 274 270 241 231 215 50 20 227 225
59 62 58 53 49 47 47 51 52 37 25 7 348 336 331 319 302 289 282 273 274 277 279 285 288 265 255 262 275 279 278 260 210 192 123 69 70 61